Regional Weather Roundup
Issued by NWS

Home | Current Version | Previous Version | Text Only | Print | Product List | Glossary Off
Versions: 1 2 3 4 5 6 7 8 9 10 11 12 13 14 15 16 17 18 19 20 21 22 23 24 25 26 27 28 29 30 31 32 33 34 35 36 37 38 39 40 41 42 43 44 45 46 47 48 49 50

682
ASUS43 KMKX 120120
RWRWI

WISCONSIN REGIONAL WEATHER ROUNDUP
NATIONAL WEATHER SERVICE MILWAUKEE/SULLIVAN WI
700 PM CST MON DEC 11 2017

NOTE: "FAIR" INDICATES FEW OR NO CLOUDS BELOW 12,000 FEET WITH NO
SIGNIFICANT WEATHER AND/OR OBSTRUCTIONS TO VISIBILITY.

WIZ001-002-006>008-014>016-023>028-120200-
NORTHWEST WISCONSIN

CITY           SKY/WX    TMP DP  RH WIND       PRES   REMARKS
SUPERIOR ARPT  PTCLDY    17   8  66 NW8       30.13R WCI   7
ASHLAND        MOCLDY    18   8  65 N17       30.07R WCI   3
HAYWARD        CLOUDY    19   9  65 N7        30.03R WCI  10
SIREN          CLEAR     19  10  66 N15G21    30.10R WCI   5
CUMBERLAND     CLEAR     19   9  63 N20G26    30.04R WCI   4
RICE LAKE      PTCLDY    21  11  66 NW6       30.06R WCI  13
CHETEK         MOCLDY    20  12  69 N3        30.04R
LADYSMITH      MOCLDY    21  12  68 NW16G22   30.00R WCI   7
EAU CLAIRE     CLOUDY    23  11  60 NW21G36   30.03R WCI   8
MENOMONIE      CLOUDY    26  15  63 NW15G21   30.05R WCI  13
NEW RICHMOND   PTCLDY    22  12  66 NW15      30.09R WCI   9
OSCEOLA        CLOUDY    23  12  63 NW14      30.14R WCI  10
$$

WIZ003>005-009-010-017-018-120200-
NORTH CENTRAL WISCONSIN

CITY           SKY/WX    TMP DP  RH WIND       PRES   REMARKS
MANITOWISH WTR LGT SNOW  17  12  82 N12G25    29.90R WCI   4
ARBOR VITAE    LGT SNOW  19  14  78 N16G25    29.88R WCI   5
WOODRUFF       LGT SNOW  19  14  78 N16G25    29.88R WCI   5
RHINELANDER    LGT SNOW  19  15  84 N9G20     29.88R FOG     WCI   8
EAGLE RIVER    LGT SNOW  18  11  74 N16G26    29.85R WCI   3
LAND O LAKES   CLOUDY    18  10  71 N17G31    29.88R HAZE    WCI   3
PHILLIPS       CLOUDY    18  12  76 NW12G22   29.93R WCI   6
TOMAHAWK       CLOUDY    19  12  74 NW10G18   29.90R WCI   7
MEDFORD        FLURRIES  20  10  66 N16G29    29.91R WCI   6
MERRILL        LGT SNOW  21  17  84 N20G29    29.89R VSB 3/4 WCI   5
$$

WIZ029-030-035-036-043>047-120200-
CENTRAL WISCONSIN

CITY           SKY/WX    TMP DP  RH WIND       PRES   REMARKS
WAUSAU         CLOUDY    23  12  62 N17G33    29.87R WCI   9
MOSINEE        FLURRIES  25  16  68 N24G33    29.89R WCI   9
MARSHFIELD     FLURRIES  23  15  71 N26G35    29.91R WCI   6
STEVENS POINT  CLOUDY    26  16  68 N23G32    29.87R WCI  11
WAUPACA        CLOUDY    32  21  64 NW16G23   29.84R WCI  21
WAUTOMA        CLOUDY    30  23  75 NW12G24   29.86R WCI  20
WISC RAPIDS    CLOUDY    28  18  66 N15G24    29.90R WCI  16
CAMP DOUGLAS   CLOUDY    30  21  69 NW16G28   29.89R WCI  19
$$

WIZ011>013-019>022-031-037>040-048>050-120200-
NORTHEAST WISCONSIN

CITY           SKY/WX    TMP DP  RH WIND       PRES   REMARKS
ANTIGO         CLOUDY    20  13  74 NW20G31   29.83R WCI   5
SHAWANO        CLOUDY    30  20  65 N18G25    29.83R WCI  18
OCONTO         CLOUDY    27  23  85 NW7       29.81R WCI  19
STURGEON BAY   FLURRIES  28  23  81 NW20G28   29.78S WCI  15
GREEN BAY      CLOUDY    29  24  82 NW14      29.82R WCI  18
MANITOWOC      CLOUDY    27  23  85 NW14      29.80R WCI  16
APPLETON       CLOUDY    28  21  74 NW16G22   29.80R WCI  17
CLINTONVILLE   CLOUDY    28  19  69 NW14G24   29.84R WCI  17
OSHKOSH        CLOUDY    29  23  78 NW13      29.82R WCI  19
$$

WIZ032>034-041-042-053>061-120200-
SOUTHWEST WISCONSIN

CITY           SKY/WX    TMP DP  RH WIND       PRES   REMARKS
LA CROSSE      CLOUDY    33  21  61 N23G32    29.96R WCI  21
SPARTA         CLOUDY    31  20  65 NW17G26   29.94R WCI  19
VIROQUA        CLOUDY    30  24  79 NW15G25   29.90R WCI  19
BOSCOBEL       CLOUDY    34  25  69 N9G21     29.93R WCI  27
PRAIRIE DU CHI CLOUDY    34  26  72 NW13      29.93R WCI  25
PLATTEVILLE    CLOUDY    32  30  92 NW20G25   29.87R WCI  20
$$

WIZ056-057-062-063-064-067-068-120200-
SOUTH CENTRAL WISCONSIN

CITY           SKY/WX    TMP DP  RH WIND       PRES   REMARKS
REEDSBURG      CLOUDY    30  24  78 NW17G23   29.88R WCI  18
BARABOO/DELLS  CLOUDY    30  23  75 N13G23    29.87R WCI  20
LONE ROCK      CLOUDY    32  26  78 N14G25    29.90R WCI  22
MINERAL POINT  CLOUDY    32  32 100 NW14G22   29.86R WCI  22
MADISON        CLOUDY    31  25  78 N15G28    29.84R WCI  20
MIDDLETON      CLOUDY    32  27  80 N18G25    29.85R WCI  20
WATERTOWN      CLOUDY    31  27  87 NW13      29.81R WCI  21
MONROE         CLOUDY    32  28  86 NW13G18   29.82R WCI  22
JANESVILLE     CLOUDY    34  28  80 NW14      29.81R WCI  24
$$

WIZ051-052-058>065-066-070>072-120200-
SOUTHEAST WISCONSIN

CITY           SKY/WX    TMP DP  RH WIND       PRES   REMARKS
MILWAUKEE      CLOUDY    33  26  75 NW15G22   29.78R WCI  23
WAUKESHA       CLOUDY    28  25  86 NW12G21   29.79R WCI  18
MILWAUKEE/TIMM CLOUDY    30  23  74 NW15      29.79R WCI  19
RACINE         CLOUDY    32  26  78 NW9       29.78R WCI  24
BURLINGTON     CLOUDY    42  40  95 N12       29.78R
KENOSHA        CLOUDY    32  26  78 NW9       29.77R WCI  24
FOND DU LAC    CLOUDY    30  22  72 NW14      29.83R WCI  19
SHEBOYGAN      CLOUDY    28  23  81 NW15G23   29.80R WCI  16
WEST BEND      CLOUDY    28  27  93 NW14G20   29.80R WCI  17
JUNEAU         CLOUDY    29  24  82 NW14G23   29.84R WCI  18
$$

LSZ147-162-120200-
LAKE SUPERIOR

STATION/POSITION TIME  TEMP    WIND        PRES    WAVE
                       AIR SEA DIR/SP/G            HT/PER
                 (UTC) (F)     (DEG/KT/KT) (MB)    (FT/S)
DEVILS ISLAND    0100   18     330/ 20/ 23 1019.6R
SAXON HARBOR     0052   23                 1016.6R
$$

LMZ867-665-643>646-120200-
LAKE MICHIGAN

STATION/POSITION TIME  TEMP    WIND        PRES    WAVE
                       AIR SEA DIR/SP/G            HT/PER
                 (UTC) (F)     (DEG/KT/KT) (MB)    (FT/S)
NORTHPORT PIER   0057   30     320/ 28/ 36 1008.1R
KEWAUNEE LAKESHO 0100   27     310/  7/ 10 1008.0
SHEBOYGAN LAKESH 0100   29     320/ 13/ 19 1010.0R
PORT WASHINGTON  0040   31     330/  9/ 16 1009.8R
MILWAUKEE LAKESH 0100   32     340/ 13/ 17   N/A
KENOSHA   LAKESH 0100   32     310/ 10/ 12 1008.5
$$

TC  - TEMPERATURE IN CELSIUS
VSB - VISIBILITY IN STATUTE MILES
WCI - WIND CHILL INDEX
HX  - HEAT INDEX





USA.gov is the U.S. government's official web portal to all federal, state and local government web resources and services.